Location: Marcé
(47.5801°N, 0.3280°W)
Time: 14:41:59
(UTC+01:00)

Altair - All Passes

Search period start: 09 December 2021 00:00
Search period end: 19 December 2021 00:00
Orbit: 1502 x 1682 km, 47.2° (Epoch: 08 December)

Date Brightness Start Highest point End Pass type
(mag) Time Alt. Az. Time Alt. Az. Time Alt. Az.
09 Dec - 14:14:51 10° SSW 14:23:30 38° SE 14:31:53 10° ENE daylight
09 Dec - 16:17:49 10° WSW 16:27:25 76° SSE 16:36:41 10° ENE daylight
09 Dec - 18:22:38 10° W 18:32:08 88° S 18:41:22 10° E visible
09 Dec - 20:27:29 10° WNW 20:36:32 59° SSW 20:45:27 10° SE visible
09 Dec - 22:33:08 10° W 22:39:44 23° SW 22:46:19 10° S visible
10 Dec - 13:49:54 10° SSW 13:58:25 36° SE 14:06:40 10° ENE daylight
10 Dec - 15:52:39 10° WSW 16:02:15 74° SSE 16:11:31 10° ENE daylight
10 Dec - 17:57:25 10° W 18:06:57 88° S 18:16:12 10° E visible
10 Dec - 20:02:17 10° WNW 20:11:26 62° SSW 20:20:24 10° SE visible
10 Dec - 22:07:46 10° W 22:14:43 25° SW 22:21:39 10° S visible
11 Dec - 13:25:00 10° SSW 13:33:20 33° SE 13:41:26 10° ENE daylight
11 Dec - 15:27:28 10° WSW 15:37:05 71° SSE 15:46:21 10° ENE daylight
11 Dec - 17:32:12 10° W 17:41:46 89° S 17:51:03 10° E visible
11 Dec - 19:37:05 10° WNW 19:46:18 65° SSW 19:55:19 10° SE visible
11 Dec - 21:42:25 10° W 21:49:42 27° SW 21:56:55 10° S visible
12 Dec - 13:00:07 10° SSW 13:08:16 31° SE 13:16:10 10° E daylight
12 Dec - 15:02:19 10° WSW 15:11:56 69° SSE 15:21:12 10° ENE daylight
12 Dec - 17:06:58 10° W 17:16:35 89° S 17:25:53 10° E daylight
12 Dec - 19:11:53 10° WNW 19:21:11 68° SSW 19:30:14 10° SE visible
12 Dec - 21:17:07 10° W 21:24:40 29° SW 21:32:08 10° S visible
13 Dec - 12:35:17 10° S 12:43:11 29° SE 12:50:54 10° E daylight
13 Dec - 14:37:09 10° SW 14:46:47 66° SSE 14:56:03 10° ENE daylight
13 Dec - 16:41:44 10° W 16:51:24 89° S 17:00:42 10° E daylight
13 Dec - 18:46:40 10° WNW 18:56:01 71° SSW 19:05:08 10° ESE visible
13 Dec - 20:51:49 10° WNW 20:59:37 32° SW 21:07:19 10° SSE visible
14 Dec - 12:10:28 10° S 12:18:08 26° SE 12:25:36 10° E daylight
14 Dec - 14:12:01 10° SW 14:21:38 63° SSE 14:30:53 10° ENE daylight
14 Dec - 16:16:30 10° W 16:26:11 88° S 16:35:32 10° E daylight
14 Dec - 18:21:28 10° WNW 18:30:54 73° SSW 18:40:02 10° ESE visible
14 Dec - 20:26:33 10° WNW 20:34:34 34° SW 20:42:29 10° SSE visible
15 Dec - 11:45:42 10° S 11:53:04 24° SE 12:00:16 10° E daylight
15 Dec - 13:46:53 10° SW 13:56:29 60° SSE 14:05:43 10° ENE daylight
15 Dec - 15:51:17 10° W 16:01:00 88° S 16:10:22 10° E daylight
15 Dec - 17:56:15 10° WNW 18:05:44 76° SSW 18:14:55 10° ESE visible
15 Dec - 20:01:17 10° WNW 20:09:31 37° SW 20:17:37 10° SSE visible
16 Dec - 11:20:59 10° S 11:28:02 22° SE 11:34:54 10° E daylight
16 Dec - 13:21:46 10° SW 13:31:20 58° SSE 13:40:33 10° ENE daylight
16 Dec - 15:26:03 10° W 15:35:49 87° S 15:45:12 10° E daylight
16 Dec - 17:31:03 10° W 17:40:35 78° SSW 17:49:47 10° ESE visible
16 Dec - 19:36:01 10° WNW 19:44:27 39° SW 19:52:42 10° SSE visible
16 Dec - 21:46:10 10° WSW 21:46:56 10° WSW 21:47:42 10° SW visible
17 Dec - 10:56:20 10° S 11:02:59 20° SE 11:09:29 10° E daylight
17 Dec - 12:56:41 10° SW 13:06:12 55° SSE 13:15:22 10° ENE daylight
17 Dec - 15:00:49 10° WSW 15:10:37 86° S 15:20:02 10° E daylight
17 Dec - 17:05:49 10° W 17:15:24 80° SSW 17:24:39 10° ESE daylight
17 Dec - 19:10:47 10° WNW 19:19:23 42° SW 19:27:48 10° SSE visible
17 Dec - 21:19:03 10° WSW 21:21:58 12° WSW 21:24:52 10° SW visible
18 Dec - 10:31:45 10° SSE 10:37:56 19° SE 10:44:00 10° E daylight
18 Dec - 12:31:37 10° SW 12:41:04 52° SSE 12:50:12 10° ENE daylight
18 Dec - 14:35:35 10° WSW 14:45:25 85° SSE 14:54:52 10° E daylight
18 Dec - 16:40:36 10° W 16:50:14 82° SSW 16:59:31 10° ESE daylight
18 Dec - 18:45:32 10° WNW 18:54:18 45° SW 19:02:51 10° SSE visible
18 Dec - 20:52:59 10° W 20:56:59 14° WSW 21:00:57 10° SSW visible
